Sausalito, CA (94965)

11:39 PM PST on February 25, 2017 (GMT -0800)
North Sausalito (Spring St) | | Change Station
Active Advisory: Beach Hazard Statement

Elev 158 ft 37.86 °N, 122.50 °W | Updated 4 seconds ago

Partly Cloudy
Partly Cloudy
44.4 °F
Feels Like 44 °F
N
1.1
Wind Variable Wind from South
Gusts 2.5 mph

Today
High -- | Low -- °F
--% Chance of Precip.
Yesterday
High -- | Low -- °F
Precip. -- in
Pressure 30.04 in
Visibility 10.0 miles
Clouds Few 3500 ft
Overcast 6000 ft
Windchill 44 °F
Dew Point 42 °F
Humidity 91%
Rainfall 0.00 in
Snow Depth Not available.
6:46 AM 5:59 PM
Waning Crescent, 0% visible
METAR KSFO 260656Z 04009KT 10SM FEW035 OVC060 11/02 A3004 RMK AO2 SLP170 T01060017
Pressure 30.04 in
Visibility 10.0 miles
Clouds Few 3500 ft
Overcast 6000 ft
Windchill 44 °F
Dew Point 42 °F
Humidity 91%
Rainfall 0.00 in
Snow Depth Not available.
6:46 AM 5:59 PM
Waning Crescent, 0% visible
METAR KSFO 260656Z 04009KT 10SM FEW035 OVC060 11/02 A3004 RMK AO2 SLP170 T01060017

Get Your Daily Forecast Email!

Thanks for signing up!

Be on the lookout for a verification email in your inbox.

You'll start receiving the daily forecast at 8 AM.

×

10-Day Weather Forecast

Almanac

Astronomy

Feb. 25, 2017 Rise Set
Actual Time
Civil Twilight
Nautical Twilight
Astronomical Twilight
Moon
Length of Visible Light
Length of Day
Tomorrow will be .
, % of the Moon is Illuminated

Today's Extremes

State Highs State Lows

Community

WunderPhotos

Upload Photos

1,962,540 photos uploaded!

WunderBlog® & News

Nearby

Air Quality

  Air Quality AQ Index Pollutant
Not available.

Snow Depth

Station Depth Elevation

Earthquake Activity

City Distance Mag. Time & Date
Minimum magnitude displayed is 2.5.

Coastal Water Temperatures

Place Temperature

Stations

Nearby Weather Stations

Station Location Temp. Windchill Dew Point Humidity Wind Precip. Elev Updated Type
                   

Watches & Warnings

Beach Hazard Statement
Issued: 8:39 PM PST Feb. 25, 2017 – National Weather Service

... Beach hazards statement remains in effect from 3 am PST Sunday
through Sunday afternoon...

* hazards... sneaker waves.

* Timing... early Sunday morning through Sunday evening. Peak
threat will be mid to late Sunday morning.

* Location... west facing beaches from Ano nuevo northward.

* Potential impacts... people being pulling into a cold turbulent
ocean... unwillingly.

Precautionary/preparedness actions...

A beach hazard statement for sneaker waves means that conditions
are present to support a heightened risk of unsuspecting beach
goers being swept into the sea by a wave. People walking along
the beach should never turn their back to the ocean. Fisherman
should avoid fishing from rocks or jetties.